�������l�o���
Date,Time,MP-1(��Sv/h),MP-2(��Sv/h),MP-3(��Sv/h),MP-4(��Sv/h),MP-5(��Sv/h),MP-6(��Sv/h),MP-7(��Sv/h),MP-8(��Sv/h),����,����(m/s),���J
2023/04/04,00:00,0.564,0.828,0.495,1.036,0.731,0.321,0.579,0.549,�k��,3.2,��
2023/04/04,00:10,0.563,0.828,0.494,1.035,0.730,0.323,0.580,0.548,�k�k��,3.1,��
2023/04/04,00:20,0.563,0.829,0.495,1.034,0.729,0.322,0.581,0.547,�k�k��,3.3,��
2023/04/04,00:30,0.563,0.828,0.496,1.036,0.730,0.323,0.579,0.546,�k��,3.5,��
2023/04/04,00:40,0.563,0.830,0.496,1.036,0.730,0.321,0.580,0.548,�k��,3.3,��
2023/04/04,00:50,0.562,0.829,0.494,1.037,0.728,0.322,0.580,0.548,�k��,3.3,��
2023/04/04,01:00,0.563,0.829,0.495,1.036,0.730,0.322,0.579,0.549,�k�k��,3.3,��
2023/04/04,01:10,0.562,0.828,0.496,1.036,0.730,0.321,0.578,0.547,�k�k��,3.2,��
2023/04/04,01:20,0.563,0.828,0.495,1.035,0.729,0.324,0.579,0.549,�k�k��,3.2,��
2023/04/04,01:30,0.563,0.827,0.494,1.035,0.729,0.323,0.579,0.547,�k�k��,2.6,��
2023/04/04,01:40,0.563,0.825,0.495,1.036,0.728,0.323,0.579,0.548,�k��,2.8,��
2023/04/04,01:50,0.562,0.829,0.495,1.036,0.727,0.323,0.578,0.548,�k�k��,2.3,��
2023/04/04,02:00,0.562,0.828,0.495,1.036,0.729,0.323,0.579,0.548,�k��,3.0,��
2023/04/04,02:10,0.561,0.828,0.495,1.035,0.728,0.322,0.578,0.547,�k��,2.9,��
2023/04/04,02:20,0.562,0.828,0.494,1.038,0.728,0.324,0.578,0.548,�k��,3.1,��
2023/04/04,02:30,0.564,0.828,0.496,1.035,0.728,0.323,0.579,0.548,�k�k��,2.6,��
2023/04/04,02:40,0.563,0.827,0.495,1.036,0.728,0.322,0.579,0.548,�k�k��,2.8,��
2023/04/04,02:50,0.563,0.830,0.496,1.034,0.729,0.324,0.578,0.547,�k�k��,2.6,��
2023/04/04,03:00,0.562,0.827,0.495,1.033,0.729,0.322,0.579,0.548,�k�k��,3.1,��
2023/04/04,03:10,0.562,0.827,0.495,1.033,0.731,0.321,0.578,0.548,�k�k��,3.2,��
2023/04/04,03:20,0.563,0.826,0.497,1.035,0.729,0.322,0.578,0.549,�k�k��,3.7,��
2023/04/04,03:30,0.563,0.828,0.496,1.035,0.729,0.323,0.577,0.550,�k�k��,3.6,��
2023/04/04,03:40,0.564,0.830,0.496,1.036,0.729,0.322,0.577,0.547,�k�k��,3.5,��
2023/04/04,03:50,0.564,0.828,0.497,1.034,0.730,0.322,0.578,0.548,�k�k��,3.6,��
2023/04/04,04:00,0.563,0.827,0.495,1.034,0.728,0.321,0.578,0.547,�k��,3.6,��
2023/04/04,04:10,0.562,0.828,0.495,1.037,0.729,0.323,0.578,0.548,�k��,2.9,��
2023/04/04,04:20,0.561,0.827,0.496,1.035,0.728,0.322,0.577,0.548,�k��,2.5,��
2023/04/04,04:30,0.563,0.827,0.498,1.035,0.729,0.323,0.579,0.548,�k��,3.2,��
2023/04/04,04:40,0.564,0.826,0.495,1.035,0.728,0.322,0.578,0.549,�k��,3.0,��
2023/04/04,04:50,0.562,0.827,0.496,1.033,0.728,0.322,0.579,0.549,�k��,3.3,��
2023/04/04,05:00,0.562,0.827,0.495,1.035,0.729,0.321,0.578,0.548,�k�k��,3.8,��
2023/04/04,05:10,0.562,0.829,0.494,1.033,0.728,0.322,0.578,0.549,�k�k��,4.0,��
2023/04/04,05:20,0.561,0.827,0.494,1.036,0.730,0.323,0.577,0.547,�k�k��,4.0,��
2023/04/04,05:30,0.561,0.826,0.495,1.038,0.729,0.323,0.577,0.549,�k�k��,3.9,��
2023/04/04,05:40,0.561,0.826,0.496,1.035,0.729,0.321,0.578,0.548,�k�k��,4.2,��
2023/04/04,05:50,0.564,0.829,0.494,1.034,0.728,0.322,0.577,0.548,�k�k��,3.8,��
2023/04/04,06:00,0.563,0.828,0.497,1.037,0.729,0.323,0.579,0.548,�k�k��,3.7,��
2023/04/04,06:10,0.562,0.827,0.495,1.036,0.729,0.323,0.576,0.548,�k�k��,3.8,��
2023/04/04,06:20,0.562,0.827,0.497,1.035,0.727,0.322,0.578,0.549,�k�k��,3.8,��
2023/04/04,06:30,0.562,0.825,0.496,1.036,0.729,0.323,0.577,0.547,�k,3.4,��
2023/04/04,06:40,0.563,0.827,0.495,1.035,0.728,0.323,0.580,0.548,�k,3.4,��
2023/04/04,06:50,0.564,0.827,0.495,1.036,0.729,0.322,0.579,0.550,�k�k��,3.5,��
2023/04/04,07:00,0.563,0.830,0.494,1.036,0.728,0.323,0.578,0.549,�k,3.3,��
2023/04/04,07:10,0.563,0.827,0.496,1.036,0.729,0.323,0.579,0.548,�k,3.4,��
2023/04/04,07:20,0.561,0.830,0.496,1.038,0.728,0.323,0.579,0.548,�k�k��,3.1,��
2023/04/04,07:30,0.563,0.830,0.495,1.035,0.728,0.322,0.578,0.547,�k�k��,2.2,��
2023/04/04,07:40,0.565,0.829,0.496,1.037,0.728,0.322,0.579,0.549,�k,1.9,��
2023/04/04,07:50,0.563,0.830,0.497,1.037,0.729,0.322,0.580,0.547,�k,2.3,��
2023/04/04,08:00,0.564,0.825,0.497,1.039,0.728,0.321,0.578,0.549,�k,2.3,�L
2023/04/04,08:10,0.565,0.828,0.496,1.037,0.730,0.321,0.579,0.551,�k�k��,2.0,��
2023/04/04,08:20,0.565,0.827,0.497,1.037,0.730,0.321,0.579,0.547,�k,2.5,��
2023/04/04,08:30,0.564,0.825,0.497,1.039,0.729,0.321,0.582,0.550,�k�k��,1.7,��
2023/04/04,08:40,0.566,0.824,0.499,1.037,0.728,0.323,0.580,0.550,�k,2.3,��
2023/04/04,08:50,0.566,0.825,0.498,1.037,0.729,0.321,0.578,0.551,�k,1.9,��
2023/04/04,09:00,0.565,0.825,0.496,1.036,0.730,0.321,0.576,0.548,�k,2.6,��
2023/04/04,09:10,0.566,0.825,0.496,1.036,0.729,0.321,0.577,0.547,�k��,2.6,��
2023/04/04,09:20,0.565,0.826,0.497,1.037,0.730,0.322,0.578,0.546,���k��,2.6,��
2023/04/04,09:30,0.565,0.827,0.494,1.036,0.729,0.322,0.577,0.547,���k��,2.9,��
2023/04/04,09:40,0.565,0.827,0.496,1.038,0.730,0.321,0.577,0.546,�k��,2.0,��
2023/04/04,09:50,0.566,0.826,0.496,1.039,0.729,0.322,0.578,0.547,�k��,1.9,��
2023/04/04,10:00,0.565,0.826,0.497,1.038,0.729,0.322,0.578,0.549,�k�k��,2.6,��
2023/04/04,10:10,0.566,0.828,0.497,1.037,0.729,0.321,0.579,0.548,���k��,2.3,��
2023/04/04,10:20,0.565,0.828,0.497,1.039,0.730,0.322,0.578,0.546,�k�k��,2.2,��
2023/04/04,10:30,0.563,0.827,0.497,1.036,0.729,0.322,0.578,0.547,���k��,2.2,��
2023/04/04,10:40,0.562,0.827,0.497,1.036,0.730,0.323,0.579,0.547,���k��,2.3,��
2023/04/04,10:50,0.564,0.825,0.495,1.038,0.729,0.322,0.578,0.549,��,2.6,��
2023/04/04,11:00,0.563,0.826,0.497,1.038,0.728,0.322,0.578,0.548,���쓌,2.5,��
2023/04/04,11:10,0.564,0.830,0.496,1.036,0.729,0.322,0.578,0.548,���쓌,2.6,��
2023/04/04,11:20,0.566,0.827,0.496,1.037,0.729,0.321,0.578,0.547,���쓌,2.6,��
2023/04/04,11:30,0.564,0.827,0.497,1.038,0.728,0.322,0.578,0.547,��,3.0,��
2023/04/04,11:40,0.565,0.829,0.495,1.036,0.729,0.324,0.577,0.547,��,2.5,��
2023/04/04,11:50,0.567,0.829,0.497,1.037,0.732,0.323,0.579,0.547,���쓌,3.6,��
2023/04/04,12:00,0.566,0.829,0.494,1.038,0.730,0.322,0.579,0.547,���쓌,3.2,��
2023/04/04,12:10,0.568,0.831,0.495,1.039,0.730,0.322,0.580,0.545,�쓌,3.6,��
2023/04/04,12:20,0.568,0.829,0.497,1.038,0.730,0.321,0.579,0.546,�쓌,3.6,��
2023/04/04,12:30,0.565,0.829,0.497,1.040,0.731,0.322,0.578,0.547,�쓌,3.5,��
2023/04/04,12:40,0.566,0.829,0.497,1.037,0.732,0.322,0.580,0.549,���쓌,3.3,��
2023/04/04,12:50,0.566,0.830,0.497,1.037,0.733,0.323,0.581,0.549,���쓌,4.1,��
2023/04/04,13:00,0.566,0.830,0.497,1.038,0.732,0.323,0.580,0.547,�쓌,3.7,��
2023/04/04,13:10,0.565,0.828,0.497,1.039,0.731,0.322,0.580,0.549,�쓌,3.7,��
2023/04/04,13:20,0.567,0.828,0.498,1.038,0.731,0.321,0.579,0.547,��쓌,4.3,��
2023/04/04,13:30,0.568,0.828,0.497,1.040,0.732,0.322,0.578,0.548,��쓌,4.1,��
2023/04/04,13:40,0.567,0.828,0.497,1.039,0.731,0.322,0.580,0.547,��쓌,5.6,��
2023/04/04,13:50,0.567,0.829,0.497,1.040,0.731,0.323,0.579,0.547,��쓌,5.7,��
2023/04/04,14:00,0.569,0.831,0.497,1.040,0.734,0.322,0.579,0.548,��쓌,4.9,��
2023/04/04,14:10,0.566,0.831,0.496,1.039,0.733,0.322,0.580,0.548,��쓌,5.7,��
2023/04/04,14:20,0.566,0.829,0.497,1.041,0.732,0.323,0.580,0.548,��쓌,5.6,��
2023/04/04,14:30,0.566,0.830,0.497,1.037,0.730,0.322,0.581,0.548,��쓌,4.8,��
2023/04/04,14:40,0.566,0.830,0.497,1.038,0.733,0.323,0.579,0.549,��쓌,5.7,��
2023/04/04,14:50,0.567,0.830,0.497,1.041,0.732,0.322,0.579,0.548,��쓌,5.7,��
2023/04/04,15:00,0.568,0.829,0.496,1.041,0.730,0.325,0.581,0.547,��쓌,5.3,��
2023/04/04,15:10,0.568,0.830,0.497,1.041,0.732,0.322,0.581,0.547,��쓌,6.0,��
2023/04/04,15:20,0.568,0.830,0.497,1.037,0.731,0.323,0.581,0.547,��쓌,6.0,��
2023/04/04,15:30,0.569,0.831,0.496,1.040,0.730,0.323,0.580,0.549,��쓌,5.6,��
2023/04/04,15:40,0.566,0.833,0.498,1.041,0.733,0.322,0.580,0.548,��쓌,7.1,��
2023/04/04,15:50,0.568,0.831,0.499,1.041,0.731,0.322,0.581,0.548,��쓌,6.4,��
2023/04/04,16:00,0.568,0.832,0.498,1.043,0.733,0.324,0.581,0.550,��쓌,6.5,��
2023/04/04,16:10,0.566,0.830,0.498,1.041,0.733,0.325,0.580,0.548,��쓌,7.8,��
2023/04/04,16:20,0.567,0.830,0.497,1.041,0.731,0.325,0.580,0.549,��쓌,7.2,��
2023/04/04,16:30,0.567,0.832,0.499,1.036,0.733,0.325,0.580,0.548,��쓌,6.5,��
2023/04/04,16:40,0.567,0.832,0.497,1.038,0.731,0.324,0.579,0.546,��,6.4,��
2023/04/04,16:50,0.566,0.833,0.497,1.036,0.731,0.325,0.579,0.548,��,6.4,��
2023/04/04,17:00,0.566,0.835,0.498,1.040,0.730,0.326,0.581,0.549,��,6.4,��
2023/04/04,17:10,0.568,0.835,0.496,1.041,0.731,0.326,0.580,0.549,��,6.6,��
2023/04/04,17:20,0.568,0.835,0.497,1.039,0.731,0.324,0.581,0.549,��,6.4,��
2023/04/04,17:30,0.567,0.835,0.497,1.042,0.733,0.323,0.581,0.551,��,6.2,��
2023/04/04,17:40,0.570,0.833,0.498,1.041,0.732,0.325,0.580,0.550,��쓌,7.5,��
2023/04/04,17:50,0.572,0.835,0.500,1.039,0.732,0.324,0.580,0.550,��,6.9,��
2023/04/04,18:00,0.570,0.836,0.499,1.040,0.731,0.323,0.580,0.550,��,6.5,��
2023/04/04,18:10,0.571,0.835,0.499,1.040,0.733,0.323,0.580,0.549,��쓌,7.6,��
2023/04/04,18:20,0.569,0.835,0.500,1.040,0.734,0.325,0.581,0.549,��,7.4,��
2023/04/04,18:30,0.570,0.832,0.499,1.041,0.734,0.324,0.581,0.549,��,8.0,��
2023/04/04,18:40,0.569,0.834,0.499,1.039,0.734,0.325,0.581,0.550,��,7.4,��
2023/04/04,18:50,0.568,0.834,0.498,1.039,0.734,0.324,0.582,0.550,��,7.0,��
2023/04/04,19:00,0.569,0.834,0.499,1.039,0.734,0.325,0.583,0.550,��,7.5,��
2023/04/04,19:10,0.569,0.835,0.499,1.040,0.734,0.324,0.582,0.549,��,7.2,��
2023/04/04,19:20,0.569,0.834,0.500,1.042,0.734,0.325,0.582,0.549,��,6.9,��
2023/04/04,19:30,0.570,0.834,0.501,1.039,0.734,0.325,0.581,0.549,��,5.9,��
2023/04/04,19:40,0.569,0.834,0.499,1.037,0.734,0.325,0.582,0.549,��,6.5,��
2023/04/04,19:50,0.568,0.831,0.498,1.038,0.733,0.324,0.582,0.550,��,7.1,��
2023/04/04,20:00,0.568,0.833,0.499,1.042,0.733,0.324,0.582,0.550,��,7.5,��
2023/04/04,20:10,0.569,0.834,0.499,1.042,0.736,0.324,0.582,0.548,��,6.4,��
2023/04/04,20:20,0.569,0.832,0.500,1.042,0.733,0.325,0.582,0.551,��,6.7,��
2023/04/04,20:30,0.569,0.834,0.499,1.038,0.734,0.324,0.582,0.549,��,6.7,��
2023/04/04,20:40,0.568,0.836,0.499,1.041,0.735,0.325,0.581,0.549,��,6.7,��
2023/04/04,20:50,0.570,0.834,0.501,1.040,0.735,0.325,0.581,0.549,��,7.1,��
2023/04/04,21:00,0.568,0.832,0.498,1.040,0.734,0.325,0.581,0.548,��,7.4,��
2023/04/04,21:10,0.568,0.834,0.499,1.040,0.735,0.325,0.582,0.548,��,7.7,��
2023/04/04,21:20,0.568,0.831,0.498,1.039,0.734,0.323,0.582,0.549,��,7.8,��
2023/04/04,21:30,0.569,0.834,0.499,1.041,0.733,0.324,0.580,0.550,��,7.7,��
2023/04/04,21:40,0.569,0.835,0.498,1.039,0.734,0.326,0.581,0.550,��,6.3,��
2023/04/04,21:50,0.570,0.835,0.499,1.040,0.734,0.324,0.581,0.549,��,5.5,��
2023/04/04,22:00,0.570,0.835,0.499,1.042,0.736,0.324,0.581,0.549,��,5.8,��
2023/04/04,22:10,0.569,0.834,0.498,1.042,0.733,0.325,0.580,0.549,��쐼,4.5,��
2023/04/04,22:20,0.569,0.834,0.501,1.039,0.734,0.324,0.581,0.550,��쐼,3.7,��
2023/04/04,22:30,0.568,0.833,0.499,1.040,0.735,0.325,0.581,0.551,��쐼,2.6,��
2023/04/04,22:40,0.570,0.834,0.500,1.041,0.735,0.325,0.581,0.548,�쐼,1.9,��
2023/04/04,22:50,0.569,0.834,0.499,1.039,0.735,0.324,0.581,0.550,�쐼,2.8,��
2023/04/04,23:00,0.569,0.833,0.499,1.042,0.734,0.326,0.581,0.549,��쐼,2.2,��
2023/04/04,23:10,0.569,0.833,0.499,1.040,0.735,0.325,0.580,0.549,�쐼,2.3,��
2023/04/04,23:20,0.569,0.834,0.499,1.042,0.735,0.326,0.579,0.549,�쐼,2.5,��
2023/04/04,23:30,0.569,0.833,0.500,1.040,0.734,0.324,0.580,0.549,��쐼,3.7,��
2023/04/04,23:40,0.569,0.832,0.499,1.041,0.733,0.325,0.580,0.550,�쐼,2.6,��
2023/04/04,23:50,0.570,0.833,0.498,1.039,0.734,0.325,0.579,0.550,�쐼,2.0,��
